Location: Barrio Las Umbrías
(40.4173°N, 4.8685°W)
Time: 12:45:42
(UTC+00:00)

ADEOS Rocket - Pass Details

Date: 17 August 2022
Orbit: 858 x 1307 km, 98.8° (Epoch: 27 September)

Event Time Altitude Azimuth Distance (km) Brightness Sun altitude
Exits shadow 22:49:57 43° 64° (ENE) 1,575 3.9 -32.2°
Drops below altitude 10° 22:55:58 10° 0° (N) 2,924 6.2 -32.7°
Sets 22:58:30 0° 354° (N) 3,818 7.1 -32.9°
